Location: Hokitika
(42.7170°S, 170.9670°E)
Time: 12:45:56
(UTC+13:00)

ADEOS Rocket - Pass Details

Date: 24 January 2019
Orbit: 859 x 1307 km, 98.7° (Epoch: 21 February)

Event Time Altitude Azimuth Distance (km) Brightness Sun altitude
Exits shadow 23:05:49 13° 350° (N) 2,343 4.6 -17.7°
Maximum altitude 23:10:37 46° 279° (W) 1,166 3.6 -18.2°
Drops below altitude 10° 23:15:56 10° 206° (SSW) 2,531 6.4 -18.8°
Sets 23:18:26 0° 199° (SSW) 3,488 7.3 -19.1°
